| time (UTC) | temp C | wind direction | speed KPH | gust KPH | rain 1hr cm | rain 24hr cm | rain mn cm | humidity % | barometer mb |
| 20260831065536 | 28 | 198 | 1.6 | 4.8 | 0.00 | 0.00 | 0.00 | 62 | 1016.5 |
| 20260831065030 | 28 | 279 | 1.6 | 4.8 | 0.00 | 0.00 | 0.00 | 61 | 1016.5 |
| 20260831064530 | 28 | 155 | 1.6 | 4.8 | 0.00 | 0.00 | 0.00 | 61 | 1016.5 |
| 20260831064028 | 28 | 281 | 0.0 | 4.8 | 0.00 | 0.00 | 0.00 | 59 | 1016.5 |
| 20260831063526 | 28 | 183 | 0.0 | 3.2 | 0.00 | 0.00 | 0.00 | 61 | 1016.5 |
| 20260831063247 | 27 | 206 | 1.6 | 4.8 | 0.00 | 0.00 | 0.00 | 62 | 1016.5 |
| 20260831062523 | 27 | 263 | 1.6 | 4.8 | 0.00 | 0.00 | 0.00 | 62 | 1016.6 |
| 20260831062245 | 28 | 296 | 0.0 | 3.2 | 0.00 | 0.00 | 0.00 | 60 | 1016.5 |
| 20260831061522 | 27 | 163 | 1.6 | 3.2 | 0.00 | 0.00 | 0.00 | 60 | 1016.5 |
| 20260831061020 | 27 | 156 | 1.6 | 3.2 | 0.00 | 0.00 | 0.00 | 59 | 1016.5 |
| 20260831060741 | 27 | 161 | 0.0 | 3.2 | 0.00 | 0.00 | 0.00 | 59 | 1016.5 |
| 20260831060241 | 27 | 107 | 1.6 | 4.8 | 0.00 | 0.00 | 0.00 | 56 | 1016.6 |
| 20260831055743 | 27 | 187 | 1.6 | 9.7 | 0.00 | 0.00 | 0.00 | 57 | 1016.6 |
| 20260831055020 | 27 | 197 | 3.2 | 9.7 | 0.00 | 0.00 | 0.00 | 60 | 1016.5 |
| 20260831054518 | 26 | 162 | 3.2 | 8.0 | 0.00 | 0.00 | 0.00 | 62 | 1016.5 |
| 20260831054018 | 26 | 176 | 1.6 | 8.0 | 0.00 | 0.00 | 0.00 | 62 | 1016.5 |
| 20260831053519 | 26 | 153 | 1.6 | 4.8 | 0.00 | 0.00 | 0.00 | 64 | 1016.4 |
| 20260831053018 | 26 | 144 | 1.6 | 3.2 | 0.00 | 0.00 | 0.00 | 65 | 1016.3 |
| 20260831052518 | 26 | 203 | 1.6 | 3.2 | 0.00 | 0.00 | 0.00 | 65 | 1016.3 |
| 20260831052459 | 26 | 205 | 1.6 | 3.2 | 0.00 | 0.00 | 0.00 | 66 | 1016.2 |
| 20260831051512 | 26 | 188 | 1.6 | 3.2 | 0.00 | 0.00 | 0.00 | 67 | 1016.2 |
| 20260831051005 | 26 | 151 | 1.6 | 3.2 | 0.00 | 0.00 | 0.00 | 67 | 1016.2 |
| 20260831050459 | 26 | 152 | 0.0 | 3.2 | 0.00 | 0.00 | 0.00 | 69 | 1016.2 |
| 20260831045954 | 25 | 154 | 0.0 | 3.2 | 0.00 | 0.00 | 0.00 | 70 | 1016.1 |
| 20260831045448 | 25 | 217 | 0.0 | 3.2 | 0.00 | 0.00 | 0.00 | 71 | 1016.1 |
| 20260831045204 | 25 | 217 | 0.0 | 4.8 | 0.00 | 0.00 | 0.00 | 72 | 1016.0 |
| 20260831044657 | 25 | 239 | 0.0 | 4.8 | 0.00 | 0.00 | 0.00 | 72 | 1016.0 |
| 20260831043929 | 25 | 212 | 0.0 | 3.2 | 0.00 | 0.00 | 0.00 | 72 | 1015.9 |
| 20260831043429 | 25 | 212 | 0.0 | 3.2 | 0.00 | 0.00 | 0.00 | 72 | 1015.9 |
| 20260831043150 | 25 | 212 | 0.0 | 3.2 | 0.00 | 0.00 | 0.00 | 72 | 1016.0 |
| 20260831042429 | 25 | 228 | 1.6 | 3.2 | 0.00 | 0.00 | 0.00 | 73 | 1016.0 |
| 20260831041930 | 25 | 259 | 1.6 | 4.8 | 0.00 | 0.00 | 0.00 | 71 | 1015.9 |
| 20260831041430 | 25 | 264 | 1.6 | 4.8 | 0.00 | 0.00 | 0.00 | 71 | 1015.9 |
| 20260831040929 | 25 | 261 | 3.2 | 4.8 | 0.00 | 0.00 | 0.00 | 70 | 1015.8 |
| 20260831040427 | 25 | 266 | 1.6 | 4.8 | 0.00 | 0.00 | 0.00 | 69 | 1015.8 |
| 20260831035928 | 25 | 98 | 0.0 | 3.2 | 0.00 | 0.00 | 0.00 | 65 | 1015.7 |
| 20260831035428 | 25 | 100 | 0.0 | 0.0 | 0.00 | 0.00 | 0.00 | 66 | 1015.6 |
| 20260831034927 | 25 | 100 | 0.0 | 0.0 | 0.00 | 0.00 | 0.00 | 63 | 1015.7 |
| 20260831034426 | 25 | 100 | 0.0 | 0.0 | 0.00 | 0.00 | 0.00 | 62 | 1015.7 |
| 20260831033924 | 25 | 100 | 0.0 | 0.0 | 0.00 | 0.00 | 0.00 | 61 | 1015.8 |
| 20260831033422 | 25 | 100 | 0.0 | 1.6 | 0.00 | 0.00 | 0.00 | 62 | 1015.8 |
| 20260831032922 | 25 | 100 | 0.0 | 1.6 | 0.00 | 0.00 | 0.00 | 62 | 1015.8 |
| 20260831032420 | 25 | 100 | 0.0 | 1.6 | 0.00 | 0.00 | 0.00 | 62 | 1015.8 |
| 20260831031919 | 25 | 100 | 0.0 | 1.6 | 0.00 | 0.00 | 0.00 | 63 | 1015.8 |
| 20260831031418 | 25 | 100 | 0.0 | 1.6 | 0.00 | 0.00 | 0.00 | 63 | 1015.8 |
| 20260831030917 | 25 | 100 | 0.0 | 1.6 | 0.00 | 0.00 | 0.00 | 63 | 1015.7 |
| 20260831030418 | 25 | 100 | 0.0 | 1.6 | 0.00 | 0.00 | 0.00 | 63 | 1015.7 |
| 20260831025918 | 25 | 100 | 0.0 | 1.6 | 0.00 | 0.00 | 0.00 | 64 | 1015.8 |
| 20260831025418 | 25 | 100 | 0.0 | 1.6 | 0.00 | 0.00 | 0.00 | 64 | 1015.8 |
| 20260831025147 | 25 | 100 | 0.0 | 0.0 | 0.00 | 0.00 | 0.00 | 64 | 1015.8 |
| 20260831024418 | 25 | 100 | 0.0 | 1.6 | 0.00 | 0.00 | 0.00 | 65 | 1015.8 |
| 20260831023918 | 25 | 100 | 0.0 | 1.6 | 0.00 | 0.00 | 0.00 | 65 | 1015.8 |
| 20260831023418 | 25 | 100 | 0.0 | 1.6 | 0.00 | 0.00 | 0.00 | 67 | 1015.9 |
| 20260831022913 | 25 | 100 | 0.0 | 1.6 | 0.00 | 0.00 | 0.00 | 69 | 1015.9 |
| 20260831022413 | 25 | 100 | 0.0 | 0.0 | 0.00 | 0.00 | 0.00 | 70 | 1015.9 |
| 20260831021914 | 25 | 100 | 0.0 | 0.0 | 0.00 | 0.00 | 0.00 | 70 | 1015.9 |
| 20260831021413 | 25 | 100 | 0.0 | 1.6 | 0.00 | 0.00 | 0.00 | 70 | 1016.0 |
| 20260831020914 | 25 | 100 | 0.0 | 1.6 | 0.00 | 0.00 | 0.00 | 69 | 1016.0 |
| 20260831020414 | 25 | 100 | 0.0 | 1.6 | 0.00 | 0.00 | 0.00 | 68 | 1016.0 |
| 20260831015913 | 25 | 100 | 0.0 | 1.6 | 0.00 | 0.00 | 0.00 | 68 | 1016.0 |
| 20260831015639 | 25 | 100 | 0.0 | 0.0 | 0.00 | 0.00 | 0.00 | 68 | 1016.0 |
| 20260831015143 | 25 | 100 | 0.0 | 1.6 | 0.00 | 0.00 | 0.00 | 68 | 1016.1 |
| 20260831014631 | 25 | 100 | 1.6 | 1.6 | 0.00 | 0.00 | 0.00 | 68 | 1016.0 |
| 20260831014133 | 25 | 100 | 0.0 | 1.6 | 0.00 | 0.00 | 0.00 | 67 | 1016.0 |
| 20260831013411 | 25 | 100 | 0.0 | 1.6 | 0.00 | 0.00 | 0.00 | 68 | 1015.9 |
| 20260831012910 | 25 | 100 | 0.0 | 1.6 | 0.00 | 0.00 | 0.00 | 69 | 1015.9 |
| 20260831012409 | 25 | 100 | 0.0 | 1.6 | 0.00 | 0.00 | 0.00 | 69 | 1015.9 |
| 20260831011909 | 25 | 100 | 0.0 | 0.0 | 0.00 | 0.00 | 0.00 | 70 | 1015.9 |
| 20260831011408 | 25 | 100 | 0.0 | 0.0 | 0.00 | 0.00 | 0.00 | 69 | 1015.9 |
| 20260831010906 | 25 | 100 | 0.0 | 1.6 | 0.00 | 0.00 | 0.00 | 69 | 1015.9 |
| 20260831010406 | 25 | 100 | 0.0 | 1.6 | 0.00 | 0.00 | 0.00 | 70 | 1015.9 |
| 20260831005905 | 25 | 100 | 0.0 | 1.6 | 0.00 | 0.00 | 0.00 | 70 | 1016.0 |
| 20260831005406 | 25 | 100 | 0.0 | 0.0 | 0.00 | 0.00 | 0.00 | 70 | 1016.0 |
| 20260831004905 | 25 | 100 | 0.0 | 1.6 | 0.00 | 0.00 | 0.00 | 70 | 1016.0 |
| 20260831004403 | 25 | 100 | 0.0 | 1.6 | 0.00 | 0.00 | 0.00 | 70 | 1016.0 |
| 20260831003901 | 25 | 100 | 0.0 | 3.2 | 0.00 | 0.00 | 0.00 | 70 | 1015.9 |
| 20260831003359 | 25 | 100 | 1.6 | 3.2 | 0.00 | 0.00 | 0.00 | 70 | 1015.9 |
| 20260831003116 | 25 | 100 | 0.0 | 3.2 | 0.00 | 0.00 | 0.00 | 70 | 1015.8 |
| 20260831002358 | 25 | 100 | 0.0 | 1.6 | 0.00 | 0.00 | 0.00 | 70 | 1015.9 |
| 20260831002115 | 25 | 100 | 1.6 | 4.8 | 0.00 | 0.00 | 0.00 | 70 | 1015.9 |
| 20260831001347 | 25 | 100 | 1.6 | 4.8 | 0.00 | 0.00 | 0.00 | 70 | 1015.8 |
| 20260831000840 | 26 | 98 | 1.6 | 4.8 | 0.00 | 0.00 | 0.00 | 70 | 1015.8 |
| 20260831000334 | 26 | 98 | 1.6 | 4.8 | 0.00 | 0.00 | 0.00 | 70 | 1015.9 |
| 20260830235829 | 26 | 87 | 1.6 | 4.8 | 0.00 | 0.00 | 0.00 | 70 | 1016.0 |
| 20260830235539 | 26 | 358 | 0.0 | 1.6 | 0.00 | 0.00 | 0.00 | 72 | 1016.0 |
| 20260830234815 | 26 | 358 | 1.6 | 3.2 | 0.00 | 0.00 | 0.00 | 72 | 1015.9 |
| 20260830234309 | 26 | 358 | 1.6 | 3.2 | 0.00 | 0.00 | 0.00 | 72 | 1016.0 |
| 20260830233802 | 26 | 93 | 1.6 | 3.2 | 0.00 | 0.00 | 0.00 | 73 | 1015.9 |
| 20260830233257 | 26 | 96 | 0.0 | 1.6 | 0.00 | 0.00 | 0.00 | 73 | 1016.1 |
| 20260830232751 | 26 | 96 | 0.0 | 1.6 | 0.00 | 0.00 | 0.00 | 73 | 1016.0 |
| 20260830232245 | 26 | 96 | 0.0 | 1.6 | 0.00 | 0.00 | 0.00 | 73 | 1016.0 |
| 20260830231738 | 26 | 96 | 0.0 | 1.6 | 0.00 | 0.00 | 0.00 | 73 | 1016.1 |
| 20260830231233 | 26 | 96 | 0.0 | 1.6 | 0.00 | 0.00 | 0.00 | 73 | 1016.1 |
| 20260830230726 | 26 | 96 | 0.0 | 1.6 | 0.00 | 0.00 | 0.00 | 73 | 1016.1 |
| 20260830230221 | 26 | 96 | 1.6 | 3.2 | 0.00 | 0.00 | 0.00 | 72 | 1016.1 |
| 20260830225715 | 26 | 96 | 1.6 | 3.2 | 0.00 | 0.00 | 0.00 | 71 | 1016.1 |
| 20260830225208 | 26 | 96 | 0.0 | 1.6 | 0.00 | 0.00 | 0.00 | 72 | 1016.1 |
| 20260830224941 | 26 | 96 | 0.0 | 1.6 | 0.00 | 0.00 | 0.00 | 71 | 1016.1 |
| 20260830224158 | 26 | 96 | 0.0 | 1.6 | 0.00 | 0.00 | 0.00 | 71 | 1016.1 |
| 20260830223701 | 26 | 96 | 0.0 | 1.6 | 0.00 | 0.00 | 0.00 | 71 | 1016.1 |
| 20260830223418 | 26 | 96 | 1.6 | 1.6 | 0.00 | 0.00 | 0.00 | 71 | 1016.1 |
| 20260830222929 | 26 | 134 | 1.6 | 0.0 | 0.00 | 0.00 | 0.00 | 71 | 1016.0 |
| 20260830222314 | 26 | 139 | 1.6 | 6.4 | 0.00 | 0.00 | 0.00 | 72 | 1016.1 |
| 20260830221813 | 25 | 141 | 1.6 | 6.4 | 0.00 | 0.00 | 0.00 | 72 | 1016.2 |
| 20260830221305 | 25 | 146 | 1.6 | 6.4 | 0.00 | 0.00 | 0.00 | 73 | 1016.3 |
| 20260830220831 | 25 | 192 | 1.6 | 8.0 | 0.00 | 0.00 | 0.00 | 73 | 1016.3 |
| 20260830220737 | 25 | 224 | 3.2 | 8.0 | 0.00 | 0.00 | 0.00 | 74 | 1016.3 |
| 20260830220331 | 25 | 224 | 3.2 | 8.0 | 0.00 | 0.00 | 0.00 | 74 | 1016.3 |
| 20260830215810 | 25 | 145 | 3.2 | 6.4 | 0.00 | 0.00 | 0.00 | 74 | 1016.3 |
| 20260830215546 | 26 | 236 | 3.2 | 6.4 | 0.00 | 0.00 | 0.00 | 74 | 1016.4 |
| 20260830215305 | 25 | 152 | 3.2 | 6.4 | 0.00 | 0.00 | 0.00 | 74 | 1016.4 |
| 20260830214229 | 26 | 141 | 3.2 | 6.4 | 0.00 | 0.00 | 0.00 | 72 | 1016.3 |
| 20260830213735 | 26 | 141 | 3.2 | 6.4 | 0.00 | 0.00 | 0.00 | 71 | 1016.3 |
| 20260830213543 | 26 | 148 | 1.6 | 6.4 | 0.00 | 0.00 | 0.00 | 71 | 1016.1 |
| 20260830213537 | 26 | 200 | 1.6 | 6.4 | 0.00 | 0.00 | 0.00 | 72 | 1016.2 |
| 20260830213102 | 26 | 139 | 1.6 | 4.8 | 0.00 | 0.00 | 0.00 | 71 | 1016.1 |
| 20260830213043 | 26 | 257 | 1.6 | 6.4 | 0.00 | 0.00 | 0.00 | 72 | 1016.2 |
| 20260830212308 | 26 | 210 | 1.6 | 6.4 | 0.00 | 0.00 | 0.00 | 71 | 1016.1 |
| 20260830210724 | 26 | 240 | 0.0 | 3.2 | 0.00 | 0.00 | 0.00 | 69 | 1016.1 |
| 20260830210223 | 26 | 240 | 0.0 | 3.2 | 0.00 | 0.00 | 0.00 | 68 | 1016.1 |
| 20260830205943 | 26 | 244 | 0.0 | 3.2 | 0.00 | 0.00 | 0.00 | 69 | 1016.1 |
| 20260830205220 | 26 | 159 | 0.0 | 1.6 | 0.00 | 0.00 | 0.00 | 70 | 1016.1 |
| 20260830204718 | 26 | 158 | 0.0 | 1.6 | 0.00 | 0.00 | 0.00 | 70 | 1016.0 |
| 20260830204218 | 26 | 159 | 0.0 | 1.6 | 0.00 | 0.00 | 0.00 | 70 | 1016.0 |
| 20260830203715 | 26 | 159 | 0.0 | 6.4 | 0.00 | 0.00 | 0.00 | 70 | 1016.0 |
| 20260830203215 | 26 | 159 | 1.6 | 6.4 | 0.00 | 0.00 | 0.00 | 70 | 1016.0 |
| 20260830202713 | 26 | 158 | 1.6 | 6.4 | 0.00 | 0.00 | 0.00 | 71 | 1016.0 |
| 20260830202211 | 26 | 112 | 4.8 | 8.0 | 0.00 | 0.00 | 0.00 | 71 | 1016.0 |
| 20260830201709 | 26 | 89 | 6.4 | 11.3 | 0.00 | 0.00 | 0.00 | 71 | 1016.0 |
| 20260830201209 | 26 | 115 | 6.4 | 12.9 | 0.00 | 0.00 | 0.00 | 71 | 1016.0 |
| 20260830200708 | 26 | 87 | 6.4 | 12.9 | 0.00 | 0.00 | 0.00 | 71 | 1016.0 |
| 20260830200425 | 26 | 100 | 8.0 | 16.1 | 0.00 | 0.00 | 0.00 | 71 | 1015.9 |
| 20260830195705 | 26 | 146 | 8.0 | 16.1 | 0.00 | 0.00 | 0.00 | 71 | 1015.9 |
| 20260830195205 | 26 | 110 | 9.7 | 19.3 | 0.00 | 0.00 | 0.00 | 72 | 1016.0 |
| 20260830194706 | 26 | 94 | 9.7 | 19.3 | 0.00 | 0.00 | 0.00 | 72 | 1016.0 |
| 20260830194205 | 26 | 94 | 6.4 | 16.1 | 0.00 | 0.00 | 0.00 | 72 | 1016.1 |
| 20260830193706 | 26 | 86 | 6.4 | 14.5 | 0.00 | 0.00 | 0.00 | 71 | 1016.1 |
| 20260830193205 | 26 | 140 | 6.4 | 16.1 | 0.00 | 0.00 | 0.00 | 71 | 1016.1 |
| 20260830192703 | 26 | 99 | 8.0 | 17.7 | 0.00 | 0.00 | 0.00 | 71 | 1016.1 |
| 20260830192203 | 26 | 115 | 8.0 | 17.7 | 0.00 | 0.00 | 0.00 | 71 | 1016.1 |
| 20260830191703 | 26 | 105 | 6.4 | 16.1 | 0.00 | 0.00 | 0.00 | 71 | 1016.1 |
| 20260830191203 | 26 | 174 | 6.4 | 16.1 | 0.00 | 0.00 | 0.00 | 71 | 1016.1 |
| 20260830190923 | 26 | 123 | 6.4 | 16.1 | 0.00 | 0.00 | 0.00 | 71 | 1016.1 |
| 20260830190424 | 26 | 141 | 4.8 | 11.3 | 0.00 | 0.00 | 0.00 | 71 | 1016.0 |
| 20260830185920 | 26 | 120 | 3.2 | 11.3 | 0.00 | 0.00 | 0.00 | 71 | 1016.0 |
| 20260830185201 | 26 | 160 | 3.2 | 11.3 | 0.00 | 0.00 | 0.00 | 71 | 1016.0 |
| 20260830184659 | 26 | 126 | 4.8 | 14.5 | 0.00 | 0.00 | 0.00 | 71 | 1016.0 |
| 20260830184159 | 26 | 114 | 8.0 | 14.5 | 0.00 | 0.00 | 0.00 | 71 | 1015.9 |
| 20260830183659 | 26 | 90 | 6.4 | 16.1 | 0.00 | 0.00 | 0.00 | 71 | 1015.8 |
| 20260830183159 | 27 | 72 | 3.2 | 16.1 | 0.00 | 0.00 | 0.00 | 71 | 1015.7 |
| 20260830182659 | 27 | 252 | 3.2 | 12.9 | 0.00 | 0.00 | 0.00 | 71 | 1015.7 |
| 20260830182159 | 27 | 48 | 3.2 | 12.9 | 0.00 | 0.00 | 0.00 | 71 | 1015.6 |
| 20260830182149 | 27 | 160 | 3.2 | 12.9 | 0.00 | 0.00 | 0.00 | 71 | 1015.5 |
| 20260830181156 | 27 | 152 | 3.2 | 17.7 | 0.00 | 0.00 | 0.00 | 71 | 1015.5 |
| 20260830180657 | 27 | 143 | 4.8 | 17.7 | 0.00 | 0.00 | 0.00 | 71 | 1015.5 |
| 20260830180157 | 27 | 127 | 8.0 | 19.3 | 0.00 | 0.00 | 0.00 | 70 | 1015.3 |
| 20260830175657 | 27 | 153 | 8.0 | 19.3 | 0.00 | 0.00 | 0.00 | 70 | 1015.2 |
| 20260830175157 | 27 | 184 | 6.4 | 14.5 | 0.00 | 0.00 | 0.00 | 69 | 1015.0 |
| 20260830174836 | 27 | 82 | 4.8 | 14.5 | 0.00 | 0.00 | 0.00 | 68 | 1014.9 |
| 20260830174111 | 27 | 53 | 3.2 | 11.3 | 0.00 | 0.00 | 0.00 | 68 | 1014.8 |
| 20260830173611 | 27 | 165 | 4.8 | 12.9 | 0.00 | 0.00 | 0.00 | 68 | 1014.8 |
| 20260830173110 | 27 | 186 | 6.4 | 12.9 | 0.00 | 0.00 | 0.00 | 68 | 1014.7 |
| 20260830172609 | 27 | 124 | 8.0 | 14.5 | 0.00 | 0.00 | 0.00 | 68 | 1014.7 |
| 20260830172108 | 27 | 131 | 6.4 | 14.5 | 0.00 | 0.00 | 0.00 | 67 | 1014.6 |
| 20260830171607 | 28 | 225 | 4.8 | 11.3 | 0.00 | 0.00 | 0.00 | 66 | 1014.6 |
| 20260830171107 | 28 | 229 | 4.8 | 14.5 | 0.00 | 0.00 | 0.00 | 65 | 1014.5 |
| 20260830170607 | 28 | 141 | 4.8 | 16.1 | 0.00 | 0.00 | 0.00 | 65 | 1014.4 |
| 20260830170105 | 28 | 167 | 6.4 | 19.3 | 0.00 | 0.00 | 0.00 | 65 | 1014.4 |
| 20260830165605 | 28 | 202 | 8.0 | 19.3 | 0.00 | 0.00 | 0.00 | 64 | 1014.3 |
| 20260830165059 | 28 | 150 | 6.4 | 16.1 | 0.00 | 0.00 | 0.00 | 64 | 1014.4 |
| 20260830164553 | 28 | 153 | 4.8 | 16.1 | 0.00 | 0.00 | 0.00 | 65 | 1014.3 |
| 20260830164053 | 28 | 231 | 6.4 | 16.1 | 0.00 | 0.00 | 0.00 | 64 | 1014.3 |
| 20260830163551 | 28 | 237 | 8.0 | 17.7 | 0.00 | 0.00 | 0.00 | 64 | 1014.3 |
| 20260830163051 | 28 | 169 | 6.4 | 17.7 | 0.00 | 0.00 | 0.00 | 64 | 1014.3 |
| 20260830162551 | 29 | 209 | 6.4 | 16.1 | 0.00 | 0.00 | 0.00 | 65 | 1014.2 |
| 20260830162051 | 29 | 150 | 4.8 | 16.1 | 0.00 | 0.00 | 0.00 | 64 | 1014.2 |
| 20260830161551 | 29 | 120 | 4.8 | 16.1 | 0.00 | 0.00 | 0.00 | 63 | 1014.2 |
| 20260830161049 | 30 | 138 | 6.4 | 14.5 | 0.00 | 0.00 | 0.00 | 62 | 1014.1 |
| 20260830160548 | 30 | 204 | 6.4 | 14.5 | 0.00 | 0.00 | 0.00 | 62 | 1014.2 |
| 20260830160048 | 30 | 201 | 6.4 | 19.3 | 0.00 | 0.00 | 0.00 | 61 | 1014.1 |
| 20260830155547 | 30 | 139 | 6.4 | 19.3 | 0.00 | 0.00 | 0.00 | 61 | 1014.0 |
| 20260830155047 | 30 | 194 | 6.4 | 14.5 | 0.00 | 0.00 | 0.00 | 60 | 1014.0 |
| 20260830154548 | 30 | 198 | 6.4 | 22.5 | 0.00 | 0.00 | 0.00 | 59 | 1014.1 |
| 20260830154048 | 30 | 94 | 8.0 | 22.5 | 0.00 | 0.00 | 0.00 | 58 | 1014.0 |
| 20260830153548 | 31 | 174 | 6.4 | 19.3 | 0.00 | 0.00 | 0.00 | 58 | 1014.1 |
| 20260830153044 | 31 | 123 | 8.0 | 19.3 | 0.00 | 0.00 | 0.00 | 57 | 1014.1 |
| 20260830153033 | 31 | 219 | 6.4 | 17.7 | 0.00 | 0.00 | 0.00 | 57 | 1014.0 |
| 20260830152044 | 31 | 198 | 6.4 | 17.7 | 0.00 | 0.00 | 0.00 | 55 | 1014.1 |
| 20260830151542 | 31 | 113 | 8.0 | 17.7 | 0.00 | 0.00 | 0.00 | 54 | 1014.1 |
| 20260830151042 | 31 | 168 | 6.4 | 16.1 | 0.00 | 0.00 | 0.00 | 53 | 1014.2 |
| 20260830150543 | 31 | 257 | 8.0 | 20.9 | 0.00 | 0.00 | 0.00 | 53 | 1014.1 |
| 20260830150043 | 31 | 205 | 8.0 | 20.9 | 0.00 | 0.00 | 0.00 | 52 | 1014.1 |
| 20260830145543 | 31 | 231 | 8.0 | 19.3 | 0.00 | 0.00 | 0.00 | 52 | 1014.1 |
| 20260830145043 | 31 | 207 | 6.4 | 14.5 | 0.00 | 0.00 | 0.00 | 51 | 1014.2 |
| 20260830145021 | 31 | 206 | 8.0 | 19.3 | 0.00 | 0.00 | 0.00 | 50 | 1014.2 |
| 20260830144042 | 31 | 283 | 9.7 | 19.3 | 0.00 | 0.00 | 0.00 | 50 | 1014.2 |
| 20260830143543 | 31 | 226 | 8.0 | 17.7 | 0.00 | 0.00 | 0.00 | 49 | 1014.2 |
| 20260830143306 | 32 | 210 | 8.0 | 17.7 | 0.00 | 0.00 | 0.00 | 48 | 1014.3 |
| 20260830142542 | 32 | 195 | 6.4 | 17.7 | 0.00 | 0.00 | 0.00 | 49 | 1014.2 |
| 20260830142043 | 32 | 160 | 6.4 | 17.7 | 0.00 | 0.00 | 0.00 | 49 | 1014.2 |
| 20260830141542 | 32 | 129 | 6.4 | 14.5 | 0.00 | 0.00 | 0.00 | 49 | 1014.2 |
| 20260830141043 | 32 | 158 | 4.8 | 14.5 | 0.00 | 0.00 | 0.00 | 50 | 1014.3 |
| 20260830140542 | 32 | 155 | 4.8 | 14.5 | 0.00 | 0.00 | 0.00 | 49 | 1014.3 |
| 20260830140529 | 32 | 96 | 6.4 | 14.5 | 0.00 | 0.00 | 0.00 | 49 | 1014.4 |
| 20260830135529 | 32 | 244 | 4.8 | 14.5 | 0.00 | 0.00 | 0.00 | 47 | 1014.3 |
| 20260830135028 | 32 | 206 | 4.8 | 14.5 | 0.00 | 0.00 | 0.00 | 49 | 1014.3 |
| 20260830134529 | 32 | 183 | 4.8 | 12.9 | 0.00 | 0.00 | 0.00 | 47 | 1014.4 |
| 20260830134244 | 32 | 173 | 4.8 | 12.9 | 0.00 | 0.00 | 0.00 | 50 | 1014.3 |
| 20260830133526 | 31 | 281 | 6.4 | 16.1 | 0.00 | 0.00 | 0.00 | 51 | 1014.4 |
| 20260830133247 | 31 | 156 | 9.7 | 19.3 | 0.00 | 0.00 | 0.00 | 51 | 1014.5 |
| 20260830132527 | 31 | 242 | 6.4 | 19.3 | 0.00 | 0.00 | 0.00 | 51 | 1014.5 |
| 20260830132242 | 31 | 216 | 6.4 | 14.5 | 0.00 | 0.00 | 0.00 | 53 | 1014.5 |
| 20260830132019 | 31 | 147 | 6.4 | 17.7 | 0.00 | 0.00 | 0.00 | 55 | 1014.6 |
| 20260830131243 | 31 | 213 | 8.0 | 20.9 | 0.00 | 0.00 | 0.00 | 56 | 1014.6 |
| 20260830130524 | 31 | 175 | 9.7 | 24.1 | 0.00 | 0.00 | 0.00 | 58 | 1014.7 |
| 20260830130022 | 30 | 129 | 8.0 | 24.1 | 0.00 | 0.00 | 0.00 | 59 | 1014.7 |
| 20260830125522 | 31 | 226 | 8.0 | 17.7 | 0.00 | 0.00 | 0.00 | 59 | 1014.8 |
| 20260830125023 | 30 | 258 | 9.7 | 19.3 | 0.00 | 0.00 | 0.00 | 59 | 1014.8 |
| 20260830124522 | 30 | 158 | 8.0 | 19.3 | 0.00 | 0.00 | 0.00 | 59 | 1014.9 |
| 20260830124022 | 31 | 210 | 8.0 | 16.1 | 0.00 | 0.00 | 0.00 | 58 | 1014.9 |
| 20260830123752 | 30 | 228 | 8.0 | 16.1 | 0.00 | 0.00 | 0.00 | 59 | 1014.9 |
| 20260830123015 | 30 | 239 | 6.4 | 16.1 | 0.00 | 0.00 | 0.00 | 58 | 1014.9 |
| 20260830122508 | 31 | 234 | 6.4 | 12.9 | 0.00 | 0.00 | 0.00 | 56 | 1015.0 |
| 20260830122001 | 31 | 260 | 6.4 | 14.5 | 0.00 | 0.00 | 0.00 | 55 | 1015.0 |
| 20260830121455 | 31 | 195 | 6.4 | 14.5 | 0.00 | 0.00 | 0.00 | 55 | 1015.0 |
| 20260830120950 | 31 | 220 | 4.8 | 14.5 | 0.00 | 0.00 | 0.00 | 54 | 1015.2 |
| 20260830120443 | 31 | 239 | 4.8 | 17.7 | 0.00 | 0.00 | 0.00 | 55 | 1015.2 |
| 20260830115937 | 30 | 202 | 6.4 | 17.7 | 0.00 | 0.00 | 0.00 | 55 | 1015.2 |
| 20260830115432 | 30 | 211 | 4.8 | 11.3 | 0.00 | 0.00 | 0.00 | 56 | 1015.2 |
| 20260830114925 | 30 | 257 | 8.0 | 17.7 | 0.00 | 0.00 | 0.00 | 58 | 1015.3 |
| 20260830114419 | 29 | 182 | 9.7 | 17.7 | 0.00 | 0.00 | 0.00 | 60 | 1015.4 |
| 20260830113914 | 29 | 238 | 9.7 | 17.7 | 0.00 | 0.00 | 0.00 | 59 | 1015.5 |
| 20260830113408 | 29 | 255 | 9.7 | 17.7 | 0.00 | 0.00 | 0.00 | 59 | 1015.4 |
| 20260830112901 | 29 | 243 | 8.0 | 17.7 | 0.00 | 0.00 | 0.00 | 58 | 1015.5 |
| 20260830112355 | 30 | 243 | 8.0 | 16.1 | 0.00 | 0.00 | 0.00 | 57 | 1015.6 |
| 20260830112335 | 30 | 232 | 8.0 | 16.1 | 0.00 | 0.00 | 0.00 | 56 | 1015.6 |
| 20260830111345 | 30 | 259 | 6.4 | 14.5 | 0.00 | 0.00 | 0.00 | 56 | 1015.6 |
| 20260830110844 | 30 | 300 | 6.4 | 14.5 | 0.00 | 0.00 | 0.00 | 56 | 1015.7 |
| 20260830110346 | 30 | 231 | 6.4 | 14.5 | 0.00 | 0.00 | 0.00 | 56 | 1015.7 |
| 20260830105844 | 30 | 243 | 4.8 | 12.9 | 0.00 | 0.00 | 0.00 | 56 | 1015.7 |
| 20260830105346 | 30 | 141 | 6.4 | 17.7 | 0.00 | 0.00 | 0.00 | 56 | 1015.8 |
| 20260830104844 | 29 | 131 | 6.4 | 17.7 | 0.00 | 0.00 | 0.00 | 57 | 1015.8 |
| 20260830104346 | 30 | 266 | 4.8 | 14.5 | 0.00 | 0.00 | 0.00 | 55 | 1015.8 |
| 20260830103844 | 30 | 227 | 6.4 | 12.9 | 0.00 | 0.00 | 0.00 | 54 | 1016.0 |
| 20260830103609 | 29 | 245 | 6.4 | 14.5 | 0.00 | 0.00 | 0.00 | 54 | 1016.0 |
| 20260830102844 | 29 | 245 | 6.4 | 14.5 | 0.00 | 0.00 | 0.00 | 54 | 1016.1 |
| 20260830102345 | 29 | 179 | 6.4 | 16.1 | 0.00 | 0.00 | 0.00 | 55 | 1016.1 |
| 20260830101844 | 29 | 246 | 6.4 | 16.1 | 0.00 | 0.00 | 0.00 | 55 | 1016.1 |
| 20260830101604 | 29 | 243 | 6.4 | 19.3 | 0.00 | 0.00 | 0.00 | 55 | 1016.2 |
| 20260830100844 | 29 | 237 | 8.0 | 19.3 | 0.00 | 0.00 | 0.00 | 56 | 1016.3 |
| 20260830100345 | 29 | 195 | 6.4 | 16.1 | 0.00 | 0.00 | 0.00 | 56 | 1016.2 |
| 20260830095844 | 29 | 134 | 4.8 | 16.1 | 0.00 | 0.00 | 0.00 | 58 | 1016.2 |
| 20260830095346 | 28 | 210 | 8.0 | 16.1 | 0.00 | 0.00 | 0.00 | 60 | 1016.2 |
| 20260830094845 | 28 | 261 | 8.0 | 16.1 | 0.00 | 0.00 | 0.00 | 60 | 1016.2 |
| 20260830094612 | 28 | 207 | 8.0 | 16.1 | 0.00 | 0.00 | 0.00 | 60 | 1016.3 |
| 20260830093846 | 28 | 171 | 8.0 | 16.1 | 0.00 | 0.00 | 0.00 | 62 | 1016.4 |
| 20260830093345 | 28 | 154 | 8.0 | 16.1 | 0.00 | 0.00 | 0.00 | 66 | 1016.4 |
| 20260830092844 | 28 | 70 | 8.0 | 17.7 | 0.00 | 0.00 | 0.00 | 68 | 1016.5 |
| 20260830092345 | 28 | 241 | 9.7 | 17.7 | 0.00 | 0.00 | 0.00 | 68 | 1016.5 |
| 20260830091845 | 28 | 236 | 8.0 | 17.7 | 0.00 | 0.00 | 0.00 | 69 | 1016.6 |
| 20260830091346 | 28 | 212 | 6.4 | 16.1 | 0.00 | 0.00 | 0.00 | 67 | 1016.5 |
| 20260830090845 | 28 | 205 | 6.4 | 17.7 | 0.00 | 0.00 | 0.00 | 68 | 1016.5 |
| 20260830090345 | 28 | 240 | 6.4 | 17.7 | 0.00 | 0.00 | 0.00 | 68 | 1016.5 |
| 20260830085844 | 28 | 227 | 6.4 | 16.1 | 0.00 | 0.00 | 0.00 | 67 | 1016.6 |
| 20260830085346 | 28 | 174 | 8.0 | 16.1 | 0.00 | 0.00 | 0.00 | 66 | 1016.6 |
| 20260830084844 | 28 | 274 | 6.4 | 14.5 | 0.00 | 0.00 | 0.00 | 63 | 1016.6 |
| 20260830084348 | 28 | 262 | 4.8 | 14.5 | 0.00 | 0.00 | 0.00 | 62 | 1016.6 |
| 20260830083845 | 28 | 271 | 4.8 | 11.3 | 0.00 | 0.00 | 0.00 | 62 | 1016.6 |
| 20260830083343 | 28 | 270 | 4.8 | 11.3 | 0.00 | 0.00 | 0.00 | 62 | 1016.6 |
| 20260830082842 | 28 | 170 | 4.8 | 11.3 | 0.00 | 0.00 | 0.00 | 61 | 1016.5 |
| 20260830082340 | 28 | 233 | 4.8 | 11.3 | 0.00 | 0.00 | 0.00 | 62 | 1016.5 |
| 20260830081837 | 28 | 243 | 3.2 | 9.7 | 0.00 | 0.00 | 0.00 | 61 | 1016.4 |
| 20260830081338 | 28 | 257 | 4.8 | 8.0 | 0.00 | 0.00 | 0.00 | 61 | 1016.4 |
| 20260830080839 | 27 | 284 | 4.8 | 8.0 | 0.00 | 0.00 | 0.00 | 62 | 1016.4 |
| 20260830080336 | 28 | 281 | 6.4 | 11.3 | 0.00 | 0.00 | 0.00 | 60 | 1016.4 |
| 20260830075836 | 28 | 271 | 8.0 | 11.3 | 0.00 | 0.00 | 0.00 | 61 | 1016.4 |
| 20260830075558 | 28 | 270 | 8.0 | 11.3 | 0.00 | 0.00 | 0.00 | 60 | 1016.4 |
| 20260830075055 | 28 | 288 | 6.4 | 14.5 | 0.00 | 0.00 | 0.00 | 58 | 1016.3 |
| 20260830074329 | 28 | 271 | 4.8 | 14.5 | 0.00 | 0.00 | 0.00 | 56 | 1016.2 |
| 20260830073830 | 30 | 249 | 3.2 | 9.7 | 0.00 | 0.00 | 0.00 | 48 | 1016.2 |
| 20260830073327 | 30 | 167 | 1.6 | 6.4 | 0.00 | 0.00 | 0.00 | 48 | 1016.2 |
| 20260830072822 | 30 | 178 | 1.6 | 6.4 | 0.00 | 0.00 | 0.00 | 49 | 1016.1 |
| 20260830072322 | 29 | 83 | 1.6 | 6.4 | 0.00 | 0.00 | 0.00 | 49 | 1016.0 |
| 20260830071821 | 29 | 116 | 3.2 | 8.0 | 0.00 | 0.00 | 0.00 | 50 | 1016.0 |
| 20260830071322 | 29 | 185 | 1.6 | 9.7 | 0.00 | 0.00 | 0.00 | 48 | 1015.9 |
| 20260830070824 | 28 | 283 | 3.2 | 9.7 | 0.00 | 0.00 | 0.00 | 53 | 1015.9 |
| 20260830070243 | 28 | 147 | 3.2 | 11.3 | 0.00 | 0.00 | 0.00 | 54 | 1015.9 |
| 20260830065741 | 28 | 220 | 3.2 | 11.3 | 0.00 | 0.00 | 0.00 | 57 | 1015.8 |